CW3224 Weather Reports


time (UTC)temp
F
wind
direction
speed
knots
gust
knots
rain 1hr
in
rain 24hr
in
rain mn
in
humidity
%
barometer
mb
20260505093106 52 184 2.6 6.1 0.00 0.00 0.00 76 1009.0
20260505092106 52 209 2.6 6.1 0.00 0.00 0.00 76 1008.9
20260505091106 52 206 2.6 6.1 0.00 0.00 0.00 76 1008.8
20260505090105 52 206 2.6 7.0 0.00 0.00 0.00 76 1008.8
20260505085053 51 160 2.6 7.0 0.00 0.00 0.00 76 1008.9
20260505084053 51 188 2.6 4.3 0.00 0.00 0.00 76 1009.2
20260505083054 51 198 2.6 4.3 0.00 0.00 0.00 76 1009.2
20260505082531 51 211 1.7 3.5 0.00 0.00 0.00 75 1009.2
20260505081536 52 213 1.7 4.3 0.00 0.00 0.00 75 1009.2
20260505080053 52 193 1.7 3.5 0.00 0.00 0.00 74 1009.2
20260505075053 52 203 1.7 3.5 0.00 0.00 0.00 74 1009.2
20260505074053 52 204 2.6 4.3 0.00 0.00 0.00 74 1009.2
20260505073055 52 177 2.6 4.3 0.00 0.00 0.00 74 1009.2
20260505072055 51 153 2.6 4.3 0.00 0.00 0.00 75 1009.3
20260505071052 51 186 2.6 4.3 0.00 0.00 0.00 75 1009.5
20260505070051 51 184 1.7 4.3 0.00 0.00 0.00 76 1009.5
20260505065052 51 198 1.7 4.3 0.00 0.00 0.00 75 1009.4
20260505064050 51 177 1.7 2.6 0.00 0.00 0.00 74 1009.6
20260505063532 52 188 1.7 2.6 0.00 0.00 0.00 73 1009.6
20260505062050 52 187 1.7 4.3 0.00 0.00 0.00 72 1009.7
20260505061047 53 247 1.7 4.3 0.00 0.00 0.00 71 1009.7
20260505060049 53 183 0.9 2.6 0.00 0.00 0.00 70 1009.7
20260505055048 53 183 0.9 2.6 0.00 0.00 0.00 69 1009.7
20260505054048 53 181 0.0 1.7 0.00 0.00 0.00 69 1009.7
20260505053048 54 181 0.0 0.9 0.00 0.00 0.00 68 1009.7
20260505052049 54 181 0.9 3.5 0.00 0.00 0.00 67 1009.7
20260505051035 55 181 1.7 4.3 0.00 0.00 0.00 67 1009.7
20260505041033 56 229 2.6 7.8 0.00 0.00 0.00 62 1009.7
20260505040031 57 202 2.6 5.2 0.00 0.00 0.00 62 1009.7
20260505035031 57 151 3.5 7.0 0.00 0.00 0.00 61 1009.6
20260505034030 57 200 3.5 7.8 0.00 0.00 0.00 60 1009.5
20260505033030 57 217 2.6 7.8 0.00 0.00 0.00 60 1009.5
20260505032032 58 196 3.5 13.0 0.00 0.00 0.00 59 1009.5
20260505031030 58 173 2.6 8.7 0.00 0.00 0.00 59 1009.4
20260505030031 58 195 2.6 9.6 0.00 0.00 0.00 58 1009.4
20260505025032 58 204 3.5 9.6 0.00 0.00 0.00 58 1009.3
20260505024026 58 216 3.5 6.1 0.00 0.00 0.00 58 1009.5
20260505023503 59 219 3.5 7.8 0.00 0.00 0.00 57 1009.5
20260505022517 59 227 3.5 7.0 0.00 0.00 0.00 56 1009.6
20260505021957 59 217 2.6 6.1 0.00 0.00 0.00 56 1009.6
20260505020024 60 181 3.5 7.0 0.00 0.00 0.00 55 1009.6
20260505015024 60 187 4.3 11.3 0.00 0.00 0.00 54 1009.3
20260505014023 60 223 4.3 11.3 0.00 0.00 0.00 54 1009.2
20260505013020 61 217 4.3 8.7 0.00 0.00 0.00 53 1008.9
20260505012020 61 106 3.5 10.4 0.00 0.00 0.00 52 1008.9
20260505011021 62 211 3.5 10.4 0.00 0.00 0.00 52 1008.7
20260505010018 62 210 3.5 11.3 0.00 0.00 0.00 51 1008.5
20260505005018 62 206 4.3 10.4 0.00 0.00 0.00 50 1008.5
20260505004018 63 212 5.2 13.0 0.00 0.00 0.00 49 1008.1
20260505003019 63 218 5.2 13.9 0.00 0.00 0.00 48 1007.6
20260505002019 64 227 4.3 13.0 0.00 0.00 0.00 48 1007.6
20260505001013 64 177 4.3 12.2 0.00 0.00 0.00 46 1007.5
20260505000013 65 225 4.3 10.4 0.00 0.00 0.00 45 1007.1
20260504235010 66 206 3.5 9.6 0.00 0.00 0.00 42 1007.1
20260504234010 67 229 1.7 4.3 0.00 0.00 0.00 40 1006.6
20260504233011 67 59 1.7 4.3 0.00 0.00 0.00 40 1006.5
20260504232012 67 210 1.7 6.1 0.00 0.00 0.00 38 1006.5
20260504231012 68 229 2.6 7.8 0.00 0.00 0.00 40 1006.4
20260504230011 68 213 1.7 13.9 0.00 0.00 0.00 38 1006.2
20260504225011 68 225 3.5 8.7 0.00 0.00 0.00 37 1006.2
20260504224010 68 208 2.6 7.8 0.00 0.00 0.00 37 1006.0
20260504223011 68 231 3.5 11.3 0.00 0.00 0.00 36 1006.1
20260504222442 69 215 2.6 7.8 0.00 0.00 0.00 38 1006.1
20260504221443 69 19 2.6 7.8 0.00 0.00 0.00 38 1006.1
20260504220005 69 301 2.6 8.7 0.00 0.00 0.00 37 1006.0
20260504215004 69 301 2.6 9.6 0.00 0.00 0.00 38 1006.0
20260504214004 70 301 2.6 7.0 0.00 0.00 0.00 36 1006.0
20260504213005 70 237 2.6 10.4 0.00 0.00 0.00 37 1006.1
20260504212004 70 243 3.5 7.8 0.00 0.00 0.00 35 1006.1
20260504211435 71 276 2.6 8.7 0.00 0.00 0.00 37 1006.2
20260504210445 71 237 2.6 6.1 0.00 0.00 0.00 37 1006.1
20260504204951 71 235 2.6 9.6 0.00 0.00 0.00 37 1006.1
20260504203952 71 251 3.5 11.3 0.00 0.00 0.00 37 1006.1
20260504202952 71 203 2.6 10.4 0.00 0.00 0.00 37 1006.1
20260504202432 71 191 3.5 9.6 0.00 0.00 0.00 35 1006.1
20260504200944 71 214 3.5 8.7 0.00 0.00 0.00 35 1006.0
20260504195943 70 301 3.5 11.3 0.00 0.00 0.00 37 1006.2
20260504194944 70 328 2.6 7.8 0.00 0.00 0.00 37 1006.2
20260504193944 69 301 3.5 12.2 0.00 0.00 0.00 36 1006.3
20260504193422 70 301 3.5 11.3 0.00 0.00 0.00 35 1006.1
20260504191941 70 301 5.2 13.0 0.00 0.00 0.00 34 1006.1
20260504190941 72 192 3.5 13.0 0.00 0.00 0.00 32 1006.5
20260504185940 72 245 4.3 12.2 0.00 0.00 0.00 34 1006.6
20260504184939 72 218 5.2 13.0 0.00 0.00 0.00 31 1006.6
20260504183939 72 183 5.2 13.0 0.00 0.00 0.00 32 1007.1
20260504182938 73 81 2.6 10.4 0.00 0.00 0.00 34 1006.9
20260504181938 73 232 3.5 9.6 0.00 0.00 0.00 33 1006.9
20260504180928 73 276 4.3 9.6 0.00 0.00 0.00 37 1007.1
20260504175928 72 245 4.3 9.6 0.00 0.00 0.00 33 1007.0
20260504174928 72 257 3.5 13.9 0.00 0.00 0.00 35 1007.0
20260504173927 72 181 4.3 14.8 0.00 0.00 0.00 34 1007.1
20260504172926 72 252 3.5 8.7 0.00 0.00 0.00 41 1007.1
20260504171923 71 194 2.6 9.6 0.00 0.00 0.00 33 1007.1
20260504170924 69 252 6.1 20.0 0.00 0.00 0.00 34 1007.4
20260504150914 67 278 2.6 6.1 0.00 0.00 0.00 42 1008.6
20260504140905 61 236 3.5 8.7 0.00 0.00 0.00 50 1009.2